Satellite-Ground Cal/Val Region Overpasses Predictions

Prediction of Satellite NPP Overpassing Cal/Val Region: PacNW

Region Location: (Latitude: 10.00, Longitude: 139.50) to (Latitude: 22.70, Longitude: 165.60).

Table of predicted overpasses for the next 14.0 days since TLE Epoch: 7/4/2020
Interval Starting Time Starting Location Ending Time Ending Location
1 07/05/2020 03:42:21 ( 10.02, 144.10) 07/05/2020 03:45:57 ( 22.70, 141.08)
2 07/05/2020 14:34:02 ( 18.15, 165.60) 07/05/2020 14:36:20 ( 10.04, 163.70)
3 07/05/2020 16:14:15 ( 22.66, 141.33) 07/05/2020 16:16:23 ( 15.15, 139.51)
4 07/06/2020 03:23:20 ( 10.00, 148.86) 07/06/2020 03:26:56 ( 22.68, 145.84)
5 07/06/2020 15:55:14 ( 22.68, 146.09) 07/06/2020 15:58:49 ( 10.06, 143.09)
6 07/07/2020 03:04:19 ( 10.05, 153.60) 07/07/2020 03:07:54 ( 22.67, 150.60)
7 07/07/2020 15:36:12 ( 22.69, 150.85) 07/07/2020 15:39:48 ( 10.01, 147.83)
8 07/08/2020 02:45:18 ( 10.04, 158.36) 07/08/2020 02:48:53 ( 22.66, 155.36)
9 07/08/2020 15:17:12 ( 22.64, 155.59) 07/08/2020 15:20:47 ( 10.02, 152.59)
10 07/09/2020 02:26:16 ( 10.02, 163.12) 07/09/2020 02:29:51 ( 22.64, 160.12)
11 07/09/2020 14:58:10 ( 22.66, 160.35) 07/09/2020 15:01:45 ( 10.04, 157.35)
12 07/10/2020 02:10:01 ( 19.76, 165.59) 07/10/2020 02:10:51 ( 22.69, 164.86)
13 07/10/2020 03:48:45 ( 10.01, 142.50) 07/10/2020 03:52:20 ( 22.63, 139.50)
14 07/10/2020 14:39:09 ( 22.67, 165.11) 07/10/2020 14:42:44 ( 10.05, 162.11)
15 07/10/2020 16:20:39 ( 22.67, 139.74) 07/10/2020 16:20:55 ( 21.73, 139.50)
16 07/11/2020 03:29:44 ( 10.06, 147.25) 07/11/2020 03:33:19 ( 22.68, 144.24)
17 07/11/2020 16:01:37 ( 22.68, 144.50) 07/11/2020 16:05:12 ( 10.06, 141.49)
18 07/12/2020 03:10:43 ( 10.05, 152.01) 07/12/2020 03:14:18 ( 22.67, 149.00)
19 07/12/2020 15:42:36 ( 22.69, 149.26) 07/12/2020 15:46:12 ( 10.01, 146.24)
20 07/13/2020 02:51:42 ( 10.03, 156.77) 07/13/2020 02:55:17 ( 22.66, 153.76)
21 07/13/2020 15:23:35 ( 22.64, 154.00) 07/13/2020 15:27:10 ( 10.02, 151.00)
22 07/14/2020 02:32:40 ( 10.02, 161.53) 07/14/2020 02:36:15 ( 22.64, 158.52)
23 07/14/2020 15:04:34 ( 22.66, 158.76) 07/14/2020 15:08:09 ( 10.04, 155.75)
24 07/15/2020 02:14:30 ( 13.01, 165.59) 07/15/2020 02:17:15 ( 22.69, 163.27)
25 07/15/2020 03:55:09 ( 10.01, 140.91) 07/15/2020 03:56:52 ( 16.07, 139.50)
26 07/15/2020 14:45:32 ( 22.67, 163.52) 07/15/2020 14:49:07 ( 10.05, 160.51)
27 07/16/2020 03:36:07 ( 10.00, 145.67) 07/16/2020 03:39:43 ( 22.68, 142.65)
28 07/16/2020 14:29:42 ( 11.47, 165.60) 07/16/2020 14:30:06 ( 10.06, 165.27)
29 07/16/2020 16:08:01 ( 22.68, 142.90) 07/16/2020 16:11:36 ( 10.05, 139.90)
30 07/17/2020 03:17:07 ( 10.05, 150.41) 07/17/2020 03:20:42 ( 22.67, 147.41)
31 07/17/2020 15:48:59 ( 22.69, 147.66) 07/17/2020 15:52:35 ( 10.01, 144.64)
32 07/18/2020 02:58:05 ( 10.04, 155.17) 07/18/2020 03:01:40 ( 22.66, 152.17)
